Estación de Galvarino
Ultimos registro cada 15 minutos 25
| N° | Estación | Fecha / Hora | Temperatura | Humedad | Lluvia | Velocidad | Dirección | Radiación | Presion |
| 25 | Galvarino | 09-05-2026 06:00 | 3,8 | 85,8 | 0 | 0 | 354 | 0,6 | 1000,5 |
| 24 | Galvarino | 09-05-2026 05:45 | 4,1 | 85,1 | 0 | 0 | 348 | 0,6 | 1000,6 |
| 23 | Galvarino | 09-05-2026 05:30 | 4,1 | 85,7 | 0 | 0 | 0 | 0,6 | 1000,6 |
| 22 | Galvarino | 09-05-2026 05:15 | 4 | 86,8 | 0 | 0 | 357 | 0,6 | 1000,6 |
| 21 | Galvarino | 09-05-2026 05:00 | 4 | 86,7 | 0 | 0 | 350 | 0,6 | 1000,6 |
| 20 | Galvarino | 09-05-2026 04:45 | 4,2 | 86,6 | 0 | 0 | 352 | 0,6 | 1000,8 |
| 19 | Galvarino | 09-05-2026 04:30 | 4,1 | 87,4 | 0 | 0 | 1 | 0,6 | 1000,9 |
| 18 | Galvarino | 09-05-2026 04:15 | 4,1 | 87,2 | 0 | 0 | 347 | 0,6 | 1000,9 |
| 17 | Galvarino | 09-05-2026 04:00 | 4 | 87,1 | 0 | 0 | 4 | 0,6 | 1001 |
| 16 | Galvarino | 09-05-2026 03:45 | 4,1 | 86,1 | 0 | 0 | 4 | 0,6 | 1001 |
| 15 | Galvarino | 09-05-2026 03:30 | 4,2 | 85,4 | 0 | 0 | 1 | 0,6 | 1000,9 |
| 14 | Galvarino | 09-05-2026 03:15 | 4,1 | 85,9 | 0 | 0 | 13 | 0,6 | 1001,1 |
| 13 | Galvarino | 09-05-2026 03:00 | 4,4 | 84,3 | 0 | 0 | 358 | 0,6 | 1001,2 |
| 12 | Galvarino | 09-05-2026 02:45 | 4,6 | 83,7 | 0 | 0 | 7 | 0,6 | 1001,4 |
| 11 | Galvarino | 09-05-2026 02:30 | 4,7 | 83,9 | 0 | 0 | 6 | 0,6 | 1001,5 |
| 10 | Galvarino | 09-05-2026 02:15 | 4,5 | 85,9 | 0 | 0 | 4 | 0,6 | 1001,5 |
| 9 | Galvarino | 09-05-2026 02:00 | 4,7 | 85,7 | 0 | 0 | 8 | 0,6 | 1001,4 |
| 8 | Galvarino | 09-05-2026 01:45 | 4,9 | 85,3 | 0 | 0 | 348 | 0,6 | 1001,6 |
| 7 | Galvarino | 09-05-2026 01:30 | 5,4 | 84,6 | 0 | 0,5 | 350 | 0,6 | 1001,7 |
| 6 | Galvarino | 09-05-2026 01:15 | 4,9 | 88,4 | 0 | 0 | 0 | 0,6 | 1001,9 |
| 5 | Galvarino | 09-05-2026 01:00 | 5,2 | 88,1 | 0 | 0 | 358 | 0,6 | 1001,7 |
| 4 | Galvarino | 09-05-2026 00:45 | 5,1 | 89 | 0 | 0 | 358 | 0,6 | 1001,7 |
| 3 | Galvarino | 09-05-2026 00:30 | 5,4 | 88,3 | 0 | 0 | 333 | 0,6 | 1001,6 |
| 2 | Galvarino | 09-05-2026 00:15 | 5,5 | 89,9 | 0 | 0 | 348 | 0,6 | 1001,6 |
| 1 | Galvarino | 09-05-2026 00:00 | 5,4 | 91,2 | 0 | 0 | 1 | 0,6 | 1001,5 |